SCP
0 0 0 0 0 0 0 0 0 0 0 0 0 0 0 0 0 0 0 0 0 0 0 0 0 0 0 0 0 0 0 0 0 0 0 0 0 0 0 0 0 0 0
0 0 0 0 0 0 0 0 0 0 0 0 0 0 0 0 0 0 0 0 0 0 0 0 0 0 0 0 0 0 0 0 0 0 0 0 0 0 0 0 0 0 0
0 0 0 0 0 0 0 0 0 0 0 0 0 0 0 0 0 0 0 0 0 0 0 0 0 0 0 0 0 0 0 0 0 0 0 0 0 0 0 0 0 0 0
0 0 0 0 0 0 0 0 0 0 0 0 0 0 0 0 0 0 0 0 0 0 0 0 0 0 0 0 0 0 0 0 0 0 0 0 0 0 0 0 0 0 0
0 0 0 0 0 0 0 0 0 0 0 0 0 0 0 0 0 0 0 0 0 0 0 0 0 0 0 0 0 0 0 0 0 0 0 0 0 0 0 0 0 0 0
0 0 0 0 0 0 0 0 0 0 0 0 0 0 0 0 0 0 0 0 0 0 0 0 0 0 0 0 0 0 0 0 0 0 0 0 0 0 0 0 0 0 0
0 0 0 0 0 0 0 0 0 0 0 0 0 0 0 0 0 0 0 0 0 0 0 0 0 0 0 0 0 0 0 0 0 0 0 0 0 0 0 0 0 0 0
0 0 0 0 0 0 0 0 0 0 0 0 0 0 0 0 0 0 0 0 0 0 0 0 0 0 0 0 0 0 0 0 0 0 0 0 0 0 0 0 0 0 0
0 0 0 0 0 0 -0 -0 0 0 0 0 0 0 0 0 0 0 0 0 0 0 0 0 0 0 0 0 0 0 0 0 0 0 0 0 0 0 0 0 0 0 0
0 0 0 0 0 0 -0 -0 -0 0 0 0 0 0 0 0 0 0 0 0 0 0 0 0 0 0 0 0 0 0 0 0 0 0 0 0 0 0 0 0 0 0 0
0 0 0 0 0 0 -0 -0 -0 0 0 0 0 0 0 0 0 0 0 0 0 0 0 0 0 0 0 0 0 0 0 0 0 0 0 0 0 0 0 0 0 0 0
0 0 0 0 0 0 0 0 0 0 0 0 0 0 0 0 0 0 0 0 0 0 0 0 0 0 0 0 0 0 0 0 0 0 0 0 0 0 0 0 0 0 0
0 0 0 0 0 0 0 0 0 0 0 0 0 0 0 0 0 0 0 0 0 0 0 0 0 0 0 0 0 0 0 0 0 0 0 0 0 0 0 0 0 0 0
0 0 0 0 0 0 0 0 0 0 0 0 0 0 0 0 0 0 0 0 0 0 0 0 0 0 0 0 0 0 0 0 0 0 0 0 0 0 0 0 0 0 0
0 0 0 0 0 0 0 0 0 0 0 0 0 0 0 0 0 0 0 0 0 0 0 0 0 0 0 0 0 0 0 0 0 0 0 0 0 0 0 0 0 0 0
0 0 0 0 0 0 0 0 0 0 0 0 0 0 0 0 0 0 0 0 0 0 0 0 0 0 0 0 0 0 0 0 0 0 0 0 0 0 0 0 0 0 0
0 0 0 0 0 0 0 0 0 0 0 0 0 0 0 0 0 0 0 0 0 0 0 0 0 0 0 0 0 0 0 0 0 0 0 0 0 0 0 0 0 0 0
0 0 0 0 0 0 0 0 0 0 0 0 0 0 0 0 0 0 0 0 0 0 0 0 0 0 0 0 0 0 0 0 0 0 0 0 0 0 0 0 0 0 0
-0 0 0 0 0 0 0 0 0 0 0 0 0 0 0 0 0 0 0 0 0 0 0 0 0 0 0 0 0 0 0 0 0 0 0 0 0 0 0 0 0 0 0
0 0 0 0 0 0 0 0 0 0 0 0 0 0 0 0 0 0 0 0 0 0 0 0 0 0 0 0 0 0 0 0 0 0 0 0 0 0 0 0 0 0 0
0 0 0 0 0 0 0 0 0 0 0 0 0 0 0 0 0 0 0 0 0 0 0 0 0 0 0 0 0 0 0 0 0 0 0 0 0 0 0 0 0 0 0
0 0 0 0 0 0 0 0 0 0 0 0 0 0 0 0 0 0 0 0 0 0 0 0 0 0 0 0 0 0 0 0 0 0 0 0 0 0 0 0 0 0 0
0 0 0 0 0 0 0 0 0 0 0 0 0 0 0 0 0 0 0 0 0 0 0 0 0 0 0 0 0 0 0 0 0 0 0 0 0 0 0 0 0 0 0
0 0 0 0 0 0 0 0 0 0 0 0 0 0 0 0 0 0 0 0 0 -0 0 0 0 0 0 0 0 0 0 0 0 0 0 0 0 0 0 0 0 0 0
0 0 0 0 0 0 0 0 0 0 0 0 0 0 0 0 0 0 0 0 0 -0 0 0 0 0 0 0 0 0 0 0 0 0 0 0 0 0 -0 -0 0 0 0
0 0 0 0 0 0 0 0 0 0 0 0 0 0 0 0 0 0 0 0 0 0 0 0 0 0 0 0 0 0 0 0 0 0 0 0 0 0 -0 -0 -0 0 0
Wind_Speed
2 1 1 1 1 1 1 2 2 3 3 3 4 4 4 4 3 3 2 7 8 9 9 9 9 9 9 9 8 9 9 9 8 7 7 6 6 5 5 5 5 5 5
2 2 1 1 1 1 1 2 2 2 2 3 3 3 3 3 3 3 3 4 7 7 8 8 8 7 7 8 8 9 9 9 8 8 7 7 6 6 5 5 5 4 4
3 2 2 1 1 1 2 2 3 2 3 3 3 3 2 3 3 3 3 2 2 5 6 7 7 6 6 7 7 8 8 8 8 8 8 7 6 6 6 6 5 4 4
3 2 2 1 1 1 2 2 2 2 2 2 2 2 2 2 2 2 2 2 2 2 3 5 6 6 6 6 7 7 7 7 7 7 7 6 6 6 5 5 5 5 5
3 2 2 1 2 2 1 2 2 2 2 2 1 1 1 2 1 2 2 2 1 2 1 2 4 4 5 5 6 6 6 6 6 6 6 6 5 5 5 4 4 4 4
3 3 2 1 2 2 2 2 2 2 2 1 2 2 2 1 1 1 1 1 1 1 1 2 2 2 4 4 5 5 5 5 6 6 6 5 5 5 4 4 3 4 4
2 3 2 2 2 2 2 2 2 2 2 2 3 2 3 3 2 1 1 1 1 1 1 1 1 1 1 2 3 4 4 4 5 5 5 5 4 4 4 3 3 3 3
2 2 2 2 2 2 3 2 2 2 1 1 2 2 2 3 3 2 1 1 1 1 1 1 1 1 1 1 2 3 3 3 4 4 5 5 5 4 4 4 4 3 4
1 2 2 2 2 2 2 1 2 3 2 1 1 3 3 1 1 2 2 1 1 1 0 0 1 1 1 1 0 1 2 2 3 3 4 4 5 5 5 4 4 4 4
1 1 2 3 2 2 2 2 2 1 3 1 1 1 2 3 2 1 2 2 1 1 1 1 0 0 1 0 0 1 1 1 1 2 3 4 4 4 5 5 5 4 4
0 1 1 2 2 2 2 2 2 2 2 2 1 1 1 1 2 2 1 2 2 1 1 1 0 0 0 0 0 0 1 1 1 2 2 3 3 4 4 4 4 4 4
1 0 1 1 1 1 2 2 2 2 2 2 1 1 2 2 1 2 2 1 1 2 1 1 0 1 1 1 1 1 2 2 2 2 2 2 2 3 3 3 3 4 4
0 1 1 1 1 1 2 2 2 2 1 2 1 1 1 1 2 2 2 1 1 1 1 1 1 1 1 0 1 2 2 2 2 1 1 1 1 2 2 2 3 3 3
1 1 0 1 1 2 2 1 1 1 1 1 1 1 1 1 1 2 2 2 1 1 1 2 1 1 1 0 1 1 1 2 2 2 1 1 0 1 2 2 2 2 3
1 1 1 1 1 1 1 2 1 1 1 1 1 1 0 0 1 1 1 2 3 1 2 2 1 1 1 0 0 0 1 2 2 1 1 1 0 1 1 2 2 2 2
1 1 1 1 1 1 1 2 1 0 1 0 0 1 0 1 1 1 1 1 1 3 2 2 1 1 1 0 0 0 1 2 2 1 1 0 0 1 2 2 2 2 2
1 1 1 1 1 1 1 1 1 1 1 0 1 1 0 1 1 1 1 1 1 1 1 2 1 1 1 1 1 1 0 1 1 1 1 0 0 1 1 2 2 2 1
1 1 1 1 1 1 1 1 1 1 1 0 0 0 0 1 1 0 1 1 0 1 2 1 1 1 1 1 1 1 0 0 1 1 1 1 1 1 1 2 2 2 1
1 1 1 1 0 0 1 1 1 1 1 1 1 1 1 1 0 0 0 0 0 0 1 1 1 1 1 0 1 1 1 1 0 0 1 1 2 1 1 2 2 2 1
2 2 2 1 1 0 0 0 1 1 1 1 1 2 2 2 2 2 1 1 1 0 0 1 0 1 1 1 0 0 1 1 1 1 1 1 1 2 2 2 2 2 1
2 1 2 1 1 1 1 1 0 1 1 1 1 1 1 2 2 2 1 2 2 1 1 1 1 0 1 0 1 1 0 1 2 1 1 1 1 1 2 3 3 2 2
2 2 1 1 1 1 3 3 1 0 0 1 2 2 2 1 1 2 2 2 3 3 2 2 2 2 3 2 1 1 1 1 1 1 0 2 1 1 2 1 2 2 2
1 2 1 1 0 2 3 4 3 1 1 1 2 2 2 1 1 1 1 1 1 1 3 3 3 4 3 3 3 2 2 2 3 2 1 2 1 2 2 2 3 3 2
1 1 0 0 0 2 4 4 4 2 1 1 1 2 2 2 1 0 1 0 1 1 2 2 3 4 4 4 4 4 3 1 1 1 1 1 1 2 2 2 4 3 2
0 0 1 0 1 2 3 4 3 2 2 2 2 1 1 2 2 0 1 1 1 2 3 2 3 3 2 3 3 2 2 1 1 2 1 1 1 1 2 2 2 2 2
0 0 0 0 0 1 3 4 4 1 2 2 2 2 2 2 2 0 2 2 2 3 2 2 2 2 1 2 3 3 4 3 2 2 2 2 1 1 1 2 1 1 2
Wind_Direction
114 105 90 62 49 49 55 54 60 65 70 69 80 84 76 74 68 61 58 79 81 79 79 81 82 79 76 73 72 67 60 59 61 62 63 65 71 73 73 75 77 81 78
124 110 92 76 53 62 71 78 82 86 81 78 74 80 84 85 74 72 64 71 80 83 82 82 82 81 79 75 70 67 61 56 58 60 60 60 63 66 69 68 66 76 82
125 116 105 81 48 57 73 77 74 81 83 78 77 82 86 90 91 80 71 61 69 79 82 82 79 78 82 77 73 68 63 60 57 56 54 55 57 64 70 69 66 63 75
120 118 110 93 82 73 77 87 81 83 73 70 69 70 78 88 99 99 86 72 65 61 69 80 80 76 76 73 70 68 66 61 55 53 48 48 54 63 68 67 65 63 68
112 113 105 84 83 75 69 93 86 102 100 86 87 77 72 89 98 110 103 96 87 74 55 61 67 69 72 69 69 66 63 59 54 48 44 49 55 61 67 66 63 65 65
105 102 92 74 78 76 57 68 81 76 101 119 99 67 35 49 65 80 103 98 94 91 77 60 42 42 61 67 66 65 59 57 52 45 42 48 55 54 60 61 59 61 62
107 102 98 86 87 89 81 77 91 73 53 79 82 46 17 26 31 30 47 64 55 61 76 70 60 35 34 62 67 67 62 58 51 45 43 43 49 47 52 55 53 54 55
121 119 116 115 109 94 70 61 82 91 59 67 111 99 36 4 357 11 34 64 48 39 50 75 56 75 62 42 63 60 55 54 50 49 46 39 41 43 52 57 51 48 48
108 117 129 125 122 119 115 88 99 120 119 42 86 125 132 199 302 338 353 23 29 51 341 330 77 88 120 88 34 19 49 42 45 50 49 45 47 45 49 53 51 48 51
122 125 135 135 134 129 125 116 93 115 129 123 31 58 138 153 147 305 330 342 355 4 289 248 198 92 96 95 141 134 67 51 59 61 54 52 47 42 44 49 48 48 51
64 132 136 133 137 140 139 116 98 100 115 129 139 121 82 68 103 137 257 317 338 323 317 278 237 191 184 191 218 154 93 63 63 73 67 52 45 40 42 40 39 39 44
343 51 132 127 132 131 132 130 138 126 124 120 113 115 132 133 158 143 173 236 292 303 326 325 242 220 223 212 202 160 130 99 83 75 74 60 41 34 37 33 30 30 36
341 331 91 114 118 126 135 131 135 136 142 127 132 141 145 172 160 151 147 179 249 300 323 319 281 233 232 223 216 182 159 134 122 109 89 77 35 27 19 17 16 16 30
214 207 125 137 130 123 124 130 134 151 139 147 149 155 149 195 154 156 158 151 123 323 318 286 304 277 274 224 232 216 176 155 142 126 116 111 29 340 355 -0 354 360 14
189 163 159 145 124 117 120 129 122 167 143 161 174 160 151 216 154 155 153 157 154 186 264 273 298 290 290 232 230 195 187 192 176 153 123 98 34 345 344 354 0 2 360
165 156 152 143 132 111 107 113 121 119 114 166 151 101 49 1 41 71 126 148 152 168 219 256 261 280 272 314 268 260 214 203 209 185 177 260 358 6 352 349 351 350 355
151 150 166 145 152 147 129 119 132 115 108 24 23 84 57 68 58 35 70 84 101 143 187 277 293 319 4 317 326 314 238 225 237 220 213 227 284 331 338 335 328 321 326
142 141 133 129 148 179 157 142 160 156 158 173 299 76 22 71 69 74 105 122 175 171 165 229 295 326 314 251 249 264 257 187 206 221 228 265 273 302 319 322 318 302 301
76 75 99 112 114 163 154 156 164 174 189 195 189 177 216 136 137 74 121 177 228 39 136 175 251 276 320 329 14 337 22 358 296 202 239 282 291 307 317 318 313 297 291
81 65 71 82 66 16 76 146 162 194 198 200 202 201 206 198 202 196 194 202 180 114 114 153 242 282 304 300 121 62 4 344 312 359 4 352 334 329 334 331 315 301 276
98 95 76 58 40 36 42 40 196 198 240 267 267 239 228 223 216 199 195 195 177 185 176 182 235 270 263 206 209 203 199 329 317 321 351 336 332 327 319 314 310 303 288
92 93 86 78 40 12 17 21 28 352 302 280 283 284 283 261 253 240 238 208 185 181 192 198 221 223 233 217 198 184 160 145 282 284 220 297 324 298 292 288 301 304 293
95 96 88 77 49 339 356 8 14 21 351 301 292 298 313 327 312 245 265 264 253 218 191 189 207 226 215 204 184 194 203 201 221 219 157 267 286 278 288 290 279 285 293
123 113 93 346 10 353 2 2 8 19 351 305 279 262 268 293 291 205 168 208 292 279 245 212 211 226 217 197 192 195 199 199 274 260 160 218 259 268 288 293 285 277 283
77 136 114 51 27 344 3 4 21 20 14 344 329 330 298 276 299 314 152 185 291 299 304 305 290 260 240 199 163 129 132 145 248 256 205 179 231 277 289 280 290 302 303
290 173 70 51 40 345 7 19 28 40 10 342 334 328 325 312 314 99 180 187 232 273 300 317 322 304 260 219 185 174 178 180 196 240 224 177 196 164 294 288 294 304 304